Location: Colonia Mina de C?rbuni
(46.1667°N, 22.7167°E)
Time: 16:40:45
(UTC+00:00)

Vanguard 1 Rocket - Pass Details

Date: 15 April 2024
Orbit: 650 x 4220 km, 34.3° (Epoch: 22 May)

Event Time Altitude Azimuth Distance (km) Brightness Sun altitude
Exits shadow 02:21:58 13° 226° (SW) 6,359 11.0 -13.6°
Maximum altitude 02:23:24 14° 222° (SW) 6,443 11.1 -13.4°
Drops below altitude 10° 02:32:32 10° 199° (SSW) 7,218 11.5 -12.0°
Sets 02:43:58 0° 178° (S) 8,452 12.1 -10.3°
